Simultaneous Nadir Overpasses (SNOs) Predictions

Prediction of SNOs between GOES-17 and METOP-C Satellite Orbit:

Table of predicted SNOs for the next 14.0 days since TLE Epoch: 10/12/2024
Index Date Time (GOES-17) GOES-17 Lat,Lon METOP-C Lat,Lon Distance(km) Time Diff (sec)
1 10/12/2024 04:46:02 0.00,-104.70 -0.83,-108.28 408.10 80
2 10/13/2024 04:22:45 0.00,-104.71 0.34,-103.30 161.27 80
3 10/14/2024 16:41:37 -0.00,-104.77 0.69,-107.86 351.52 80
4 10/15/2024 16:23:38 -0.00,-104.78 -0.43,-102.87 218.35 80
5 10/17/2024 04:42:40 0.00,-104.74 -0.63,-107.46 310.14 80
6 10/18/2024 04:19:21 0.01,-104.75 0.51,-102.47 259.50 80
7 10/19/2024 16:38:13 -0.01,-104.81 0.52,-107.03 253.33 80
8 10/20/2024 16:20:14 -0.00,-104.82 -0.64,-102.04 316.64 80
9 10/22/2024 04:39:14 -0.01,-104.78 -0.42,-106.63 211.25 80
10 10/23/2024 04:15:55 -0.01,-104.78 0.70,-101.64 358.66 80
11 10/24/2024 16:34:45 0.02,-104.84 0.34,-106.19 153.72 80
12 10/25/2024 16:16:46 0.02,-104.85 -0.80,-101.19 416.81 80
